Location: Waco, TX
(31.5481°N, 97.1672°W)
Time: 13:19:03

Humanity Star - Visible Passes

Search period start: 17 March 2018 00:00
Search period end: 27 March 2018 00:00
Orbit: 252 x 327 km, 82.9° (Epoch: 17 March)

Date Brightness Start Highest point End Pass type
(mag) Time Alt. Az. Time Alt. Az. Time Alt. Az.
18 Mar 8.0 06:18:33 10° NE 06:20:07 15° E 06:21:42 10° ESE visible
19 Mar 7.2 06:19:51 10° NNE 06:21:48 21° E 06:23:46 10° SE visible
20 Mar 6.5 06:18:32 10° NNE 06:20:37 28° E 06:22:42 10° SE visible
21 Mar 6.0 06:14:30 10° NNE 06:16:34 32° E 06:18:38 10° SSE visible
22 Mar 5.8 06:07:42 10° NNE 06:09:41 33° E 06:11:39 10° SSE visible
